Location: Argonnex
(45.9500°N, 6.1333°E)
Time: 14:40:00
(UTC+00:00)

Cosmos 2266 Rocket - Pass Details

Date: 08 August 2024
Orbit: 933 x 1007 km, 82.9° (Epoch: 14 September)

Event Time Altitude Azimuth Distance (km) Brightness Sun altitude
Rises 00:51:37 0° 356° (N) 3,604 8.0 -26.0°
Reaches altitude 10° 00:54:15 10° 3° (N) 2,654 7.2 -25.8°
Maximum altitude 00:59:59 43° 75° (ENE) 1,289 4.8 -25.5°
Enters shadow 01:03:12 24° 132° (SE) 1,837 5.2 -25.3°
